Tracking 34408 objects as of 14-Jun-2026
HD Live streaming from Space Station
objects crossing your sky now

STARLINK-31764

Track STARLINK-31764 now!
10-day predictions
STARLINK-31764 is classified as:


NORAD ID: 59653
Int'l Code: 2024-082Y
Perigee: 489.1 km
Apogee: 491.2 km
Inclination: 43.0 °
Period: 94.3 minutes
Semi major axis: 6861 km
RCS: Unknown
Launch date: May 3, 2024
Source: United States (US)
Launch site: AIR FORCE EASTERN TEST RANGE (AFETR)
Your satellite tracking list
Your tracking list is empty




NASA's NSSDC Master Catalog

Two Line Element Set (TLE):
1 59653U 24082Y   26165.16668980 -.00014666  00000-0 -52435-3 0  9995
2 59653  43.0033 314.7745 0001576 265.7099 285.2777 15.27587775  5851
Source of the keplerian elements: AFSPC